{"data":{"norad_id":61661,"epoch":"2026-05-25T02:32:36.298752Z","epoch_age_seconds":76557,"freshness":"FRESH","line1":"1 61661U 24193A   26145.10597568  .00004322  00000+0  15797-3 0  9990","line2":"2 61661  53.1611  96.2489 0001313 111.4328 248.6813 15.30199774 88223","mean_motion":15.30199774,"eccentricity":0.0001313,"inclination_deg":53.1611,"raan_deg":96.2489,"arg_perigee_deg":111.4328,"mean_anomaly_deg":248.6813,"bstar":0.00015797,"rev_number":8822,"period_min":94.105359605157,"perigee_km":474.31589899936,"apogee_km":476.11558942999,"semimajor_km":6853.3527442147,"source":"CELESTRAK","updated_at":"2026-05-25T13:38:19.411640Z"}}